Flag for U.S.A. Weather past 2 weeks in Scranton, Pennsylvania, U.S.A.

Now
29 °F

Overcast.


Feels Like: 19 °F
Forecast: 32 / 40 °F
Wind: 12 mph from South

Location: Barre - Scranton - Wilkes-Barre / Scranton International Airport

Current Time: Mar 3, 2015 at 10:14:47 PM

Latest Report: Mar 3, 2015 at 9:54 PM


Visibility: 9 mi

Pressure: 29.77 "Hg

Humidity: 75%

Dew point: 22 °F

Location of ScrantonLocation

Historic Weather in Scranton — Graph

°F

Scranton temperature yesterday

Maximum temperature yesterday: 33 °F (at 1:56 PM)
Minimum temperature yesterday: 21 °F (at 11:54 PM)
Average temperature yesterday: 27 °F

Past Weeks' High & Low Weather Summary

 TemperatureHumidityPressure
High37 °F (Feb 22, 2:54 PM)88% (Feb 21, 11:03 PM)30.82 "Hg (Feb 21, 11:03 PM)
Low-8 °F (Feb 24, 4:54 AM)21% (Feb 24, 1:54 PM)29.66 "Hg (Feb 18, 3:54 PM)
Average17 °F58%30.17 "Hg
* Reported Feb 16 8:54 PM — Mar 3 8:54 PM, Scranton, Weather by CustomWeather, © 2015

Note: Actual official high and low records may vary slightly from our data, if they occured in-between our weather recording intervals... More about our weather records

Advertising

Scranton weather history for previous 24 hours

 ConditionsComfort  
Time TempWeatherWind HumidityBarometerVisibility
8:54 PM
Tue, Mar 3
28 °FOvercast.9 mph75%29.86 "Hg7 mi
7:54 PM27 °FLight snow. Overcast.7 mph75%29.90 "Hg3 mi
6:54 PM26 °FLight snow. Overcast.10 mph74%29.94 "Hg2 mi
5:54 PM25 °FLight snow. Overcast.6 mph72%29.96 "Hg4 mi
4:54 PM24 °FLight snow. Overcast.3 mph71%30.04 "Hg2 mi
4:03 PM25 °FLight snow. More clouds than sun.8 mph69%30.05 "Hg2 mi
3:54 PM25 °FLight snow. Overcast.8 mph72%30.09 "Hg3 mi
2:54 PM23 °FLight snow. Mostly cloudy.No wind81%30.16 "Hg1 mi
1:54 PM23 °FLight snow. Ice fog.5 mph78%30.20 "Hg1 mi
12:54 PM27 °FOvercast.9 mph41%30.25 "Hg10 mi
11:54 AM23 °FOvercast.No wind60%30.28 "Hg8 mi
10:54 AM22 °FPassing clouds.3 mph60%30.32 "Hg7 mi
9:54 AM20 °FOvercast.3 mph62%30.33 "Hg7 mi
8:54 AM18 °FScattered clouds.No wind65%30.39 "Hg6 mi
7:54 AM15 °FSunny.No wind67%30.41 "Hg8 mi
6:54 AM14 °FSunny.5 mph67%30.40 "Hg8 mi
5:54 AM14 °FClear.3 mph71%30.39 "Hg10 mi
4:54 AM12 °FClear.No wind73%30.39 "Hg9 mi
3:54 AM12 °FClear.No wind70%30.38 "Hg9 mi
2:54 AM15 °FClear.No wind67%30.38 "Hg10 mi
1:54 AM18 °FClear.5 mph59%30.39 "Hg10 mi
12:54 AM20 °FClear.6 mph57%30.39 "Hg10 mi
11:54 PM
Mon, Mar 2
21 °FClear.5 mph55%30.39 "Hg10 mi
10:54 PM22 °FClear.15 mph52%30.38 "Hg10 mi
Weather by CustomWeather, © 2015

See weather overviewHow to use our weather pages